{"data":{"norad_id":56102,"intl_designator":"2023-046K","name":"STARLINK-6075","alt_names":[],"object_type":"PAYLOAD","status":"ACTIVE","operator":null,"country":"US","launch_date":"2023-03-29","launch_site_code":"AFETR","launch_vehicle":null,"mission":null,"orbit_class":"UNKNOWN","rcs_meters":null,"size_class":null,"mass_kg":null,"dimensions":null,"purposes":["comms"],"wikipedia_slug":null,"has_3d_model":false,"image_url":null,"decayed_at":null,"tle_current":{"epoch":"2026-09-20T22:33:13.732128Z","epoch_age_seconds":68209,"freshness":"FRESH","line1":"1 56102U 23046K   26263.93974227  .00000621  00000+0  32089-4 0  9995","line2":"2 56102  43.0022 138.7805 0001423 243.8191 116.2515 15.27578152191899","mean_motion":15.27578152,"eccentricity":0.0001423,"inclination_deg":43.0022,"raan_deg":138.7805,"arg_perigee_deg":243.8191,"mean_anomaly_deg":116.2515,"bstar":3.2089e-5,"rev_number":19189,"period_min":94.266862753612,"perigee_km":482.07828205315,"apogee_km":484.03097719094,"semimajor_km":6861.191629622,"source":"CELESTRAK","updated_at":"2026-09-21T09:00:33.363263Z"}}}